CW0617 Weather Reports


Display with metric or nautical units.
time (UTC)temp
F
wind
direction
speed
MPH
gust
MPH
rain 1hr
in
rain 24hr
in
rain mn
in
humidity
%
barometer
mb
20260503060203 48 186 4.0 6.0 0.00 0.00 0.00 61 1009.9
20260503054703 49 182 4.0 8.0 0.00 0.00 0.00 60 1010.1
20260503053703 49 193 3.0 6.0 0.00 0.00 0.00 60 1010.1
20260503052702 50 193 3.0 9.0 0.00 0.00 0.00 59 1010.2
20260503052203 50 182 5.0 9.0 0.00 0.00 0.00 59 1010.2
20260503051703 50 190 5.0 9.0 0.00 0.00 0.00 59 1010.2
20260503051203 50 193 5.0 9.0 0.00 0.00 0.00 58 1010.3
20260503050703 50 174 5.0 9.0 0.00 0.00 0.00 58 1010.2
20260503050203 50 184 5.0 8.0 0.00 0.00 0.00 58 1010.4
20260503045703 50 173 4.0 9.0 0.00 0.00 0.00 59 1010.5
20260503045203 50 181 4.0 9.0 0.00 0.00 0.00 59 1010.6
20260503044704 50 180 5.0 9.0 0.00 0.00 0.00 59 1010.5
20260503044203 50 177 4.0 9.0 0.00 0.00 0.00 59 1010.5
20260503043202 50 186 4.0 10.0 0.00 0.00 0.00 58 1010.7
20260503042703 50 173 5.0 9.0 0.00 0.00 0.00 57 1010.7
20260503041203 51 182 6.0 9.0 0.00 0.00 0.00 56 1011.0
20260503040203 51 198 3.0 7.0 0.00 0.00 0.00 54 1010.9
20260503035703 51 184 5.0 7.0 0.00 0.00 0.00 54 1011.0
20260503034704 51 191 3.0 8.0 0.00 0.00 0.00 53 1011.0
20260503034203 50 186 4.0 8.0 0.00 0.00 0.00 53 1011.2
20260503033703 50 159 4.0 8.0 0.00 0.00 0.00 53 1011.2
20260503033203 50 191 5.0 6.0 0.00 0.00 0.00 54 1011.3
20260503032703 50 201 3.0 6.0 0.00 0.00 0.00 53 1011.3
20260503032203 50 193 5.0 6.0 0.00 0.00 0.00 54 1011.4
20260503031703 49 187 3.0 6.0 0.00 0.00 0.00 55 1011.4
20260503031203 49 184 4.0 7.0 0.00 0.00 0.00 55 1011.5
20260503030703 49 188 3.0 7.0 0.00 0.00 0.00 56 1011.7
20260503025703 49 189 3.0 6.0 0.00 0.00 0.00 57 1011.8
20260503024202 49 199 3.0 5.0 0.00 0.00 0.00 56 1011.9
20260503023205 50 203 3.0 5.0 0.00 0.00 0.00 55 1011.8
20260503022702 50 203 3.0 8.0 0.00 0.00 0.00 55 1011.9
20260503022203 50 198 4.0 8.0 0.00 0.00 0.00 53 1011.9
20260503021203 51 210 3.0 3.0 0.00 0.00 0.00 51 1012.0
20260503020703 51 230 2.0 3.0 0.00 0.00 0.00 50 1012.0
20260503020203 51 230 2.0 5.0 0.00 0.00 0.00 49 1012.1
20260503015703 52 241 3.0 6.0 0.00 0.00 0.00 50 1012.1
20260503015203 52 230 2.0 6.0 0.00 0.00 0.00 48 1012.1
20260503014703 53 246 3.0 5.0 0.00 0.00 0.00 47 1012.1
20260503013703 54 220 3.0 6.0 0.00 0.00 0.00 45 1012.1
20260503013203 54 215 3.0 6.0 0.00 0.00 0.00 44 1012.0
20260503012703 55 232 2.0 6.0 0.00 0.00 0.00 42 1012.0
20260503012204 55 248 3.0 6.0 0.00 0.00 0.00 40 1012.0
20260503011703 56 249 3.0 7.0 0.00 0.00 0.00 38 1012.0
20260503011203 56 241 3.0 8.0 0.00 0.00 0.00 37 1012.0
20260503010703 56 254 4.0 8.0 0.00 0.00 0.00 37 1012.1
20260503010204 57 260 5.0 9.0 0.00 0.00 0.00 36 1012.0
20260503004703 57 254 4.0 12.0 0.00 0.00 0.00 35 1012.1
20260503004203 58 270 5.0 12.0 0.00 0.00 0.00 35 1012.1
20260503003703 58 273 6.0 12.0 0.00 0.00 0.00 33 1012.1
20260503003203 58 270 6.0 13.0 0.00 0.00 0.00 33 1012.2
20260503002703 58 267 6.0 13.0 0.00 0.00 0.00 33 1012.2
20260503002202 58 265 6.0 14.0 0.00 0.00 0.00 33 1012.2
20260503001704 59 267 7.0 14.0 0.00 0.00 0.00 32 1012.2
20260503001203 59 266 8.0 13.0 0.00 0.00 0.00 31 1012.2
20260503000702 59 275 8.0 14.0 0.00 0.00 0.00 31 1012.3
20260503000204 59 274 6.0 17.0 0.00 0.00 0.00 32 1012.3
20260502235203 60 284 9.0 15.0 0.00 0.00 0.00 31 1012.2
20260502233703 61 282 9.0 18.0 0.00 0.00 0.00 30 1012.2
20260502233203 61 290 4.0 13.0 0.00 0.00 0.00 31 1012.2
20260502232703 61 289 8.0 15.0 0.00 0.00 0.00 31 1012.3
20260502232203 61 271 8.0 20.0 0.00 0.00 0.00 31 1012.3
20260502231703 60 294 9.0 20.0 0.00 0.00 0.00 31 1012.4
20260502231203 61 259 8.0 16.0 0.00 0.00 0.00 30 1012.4
20260502230202 61 261 8.0 14.0 0.00 0.00 0.00 30 1012.6
20260502225703 61 279 9.0 14.0 0.00 0.00 0.00 30 1012.7
20260502224702 61 246 11.0 18.0 0.00 0.00 0.00 30 1013.0
20260502223703 61 271 12.0 20.0 0.00 0.00 0.00 30 1012.9
20260502223203 61 275 7.0 12.0 0.00 0.00 0.00 31 1012.9
20260502222703 61 249 7.0 14.0 0.00 0.00 0.00 30 1012.9
20260502222203 61 269 7.0 14.0 0.00 0.00 0.00 30 1013.0
20260502221702 61 273 8.0 20.0 0.00 0.00 0.00 29 1013.0
20260502221202 61 258 10.0 20.0 0.00 0.00 0.00 31 1013.1
20260502220703 62 298 8.0 20.0 0.00 0.00 0.00 30 1013.1
20260502215703 61 277 9.0 18.0 0.00 0.00 0.00 30 1013.0
20260502215203 61 267 7.0 17.0 0.00 0.00 0.00 31 1013.2
20260502214703 61 297 9.0 16.0 0.00 0.00 0.00 31 1013.2
20260502213703 62 297 12.0 17.0 0.00 0.00 0.00 29 1013.4
20260502212703 62 248 5.0 15.0 0.00 0.00 0.00 28 1013.5
20260502212203 61 251 6.0 20.0 0.00 0.00 0.00 30 1013.6
20260502211703 61 242 9.0 20.0 0.00 0.00 0.00 31 1013.6
20260502210703 60 251 12.0 18.0 0.00 0.00 0.00 29 1013.6
20260502210203 60 240 2.0 15.0 0.00 0.00 0.00 28 1013.6
20260502205703 61 253 6.0 17.0 0.00 0.00 0.00 31 1013.8
20260502205202 60 254 9.0 20.0 0.00 0.00 0.00 29 1013.8
20260502204703 60 265 12.0 20.0 0.00 0.00 0.00 31 1013.9
20260502204202 60 267 9.0 20.0 0.00 0.00 0.00 31 1014.0
20260502203703 59 220 9.0 20.0 0.00 0.00 0.00 32 1014.0
20260502202703 60 293 6.0 15.0 0.00 0.00 0.00 30 1014.3
20260502201702 60 268 9.0 15.0 0.00 0.00 0.00 31 1014.4
20260502201203 60 321 8.0 16.0 0.00 0.00 0.00 31 1014.2
20260502200704 60 257 10.0 20.0 0.00 0.00 0.00 29 1014.4
20260502200203 60 210 11.0 20.0 0.00 0.00 0.00 31 1014.4
20260502195703 60 245 6.0 17.0 0.00 0.00 0.00 30 1014.4
20260502194703 60 286 6.0 12.0 0.00 0.00 0.00 30 1014.5
20260502193703 61 309 9.0 17.0 0.00 0.00 0.00 32 1014.9
20260502193203 61 209 7.0 16.0 0.00 0.00 0.00 33 1014.8
20260502192703 60 232 10.0 16.0 0.00 0.00 0.00 32 1014.9
20260502192203 59 305 4.0 14.0 0.00 0.00 0.00 35 1015.1
20260502191702 59 329 8.0 18.0 0.00 0.00 0.00 32 1015.0
20260502191203 58 337 9.0 18.0 0.00 0.00 0.00 32 1015.1
20260502190703 59 283 9.0 17.0 0.00 0.00 0.00 32 1015.2
20260502190203 59 256 9.0 16.0 0.00 0.00 0.00 33 1015.2
20260502185703 59 297 10.0 16.0 0.00 0.00 0.00 31 1015.2
20260502185205 58 302 10.0 16.0 0.00 0.00 0.00 31 1015.4
20260502184703 59 252 7.0 20.0 0.00 0.00 0.00 32 1015.5
20260502184204 58 308 11.0 20.0 0.00 0.00 0.00 32 1015.5
20260502183703 58 280 11.0 17.0 0.00 0.00 0.00 31 1015.7
20260502183203 58 273 9.0 17.0 0.00 0.00 0.00 31 1015.6
20260502182703 58 272 12.0 17.0 0.00 0.00 0.00 29 1015.8
20260502182203 58 287 7.0 16.0 0.00 0.00 0.00 31 1015.9
20260502181203 58 315 6.0 15.0 0.00 0.00 0.00 33 1016.0
20260502180704 57 311 6.0 14.0 0.00 0.00 0.00 34 1016.1
20260502180203 57 260 7.0 20.0 0.00 0.00 0.00 31 1016.1
20260502170204 55 250 9.0 14.0 0.00 0.00 0.00 35 1016.9
20260502164203 55 269 7.0 12.0 0.00 0.00 0.00 34 1017.1
20260502163704 55 252 5.0 12.0 0.00 0.00 0.00 36 1017.2
20260502163203 55 307 3.0 14.0 0.00 0.00 0.00 38 1017.3
20260502162703 55 252 6.0 14.0 0.00 0.00 0.00 36 1017.4
20260502162203 55 284 8.0 16.0 0.00 0.00 0.00 36 1017.4
20260502161703 54 289 10.0 16.0 0.00 0.00 0.00 35 1017.5
20260502161203 54 295 5.0 10.0 0.00 0.00 0.00 35 1017.5
20260502152203 53 192 6.0 12.0 0.00 0.00 0.00 41 1017.9
20260502151703 52 255 2.0 9.0 0.00 0.00 0.00 41 1018.0
20260502151203 52 257 3.0 7.0 0.00 0.00 0.00 39 1017.9
20260502150703 52 239 3.0 9.0 0.00 0.00 0.00 40 1018.0
20260502150203 52 274 5.0 10.0 0.00 0.00 0.00 41 1018.0
20260502123703 37 219 1.0 3.0 0.00 0.00 0.00 80 1019.1
20260502123203 36 213 1.0 3.0 0.00 0.00 0.00 81 1019.0
20260502122704 35 213 2.0 3.0 0.00 0.00 0.00 82 1019.1
20260502122204 35 209 2.0 3.0 0.00 0.00 0.00 84 1019.1
20260502121203 33 192 2.0 3.0 0.00 0.00 0.00 86 1019.2
20260502120203 31 188 2.0 3.0 0.00 0.00 0.00 87 1019.1
20260502115703 31 183 2.0 3.0 0.00 0.00 0.00 87 1019.1
20260502115203 31 200 2.0 3.0 0.00 0.00 0.00 87 1019.1
20260502114703 30 200 3.0 3.0 0.00 0.00 0.00 88 1019.0
20260502114203 30 130 0.0 3.0 0.00 0.00 0.00 87 1019.0
20260502113703 30 116 0.0 0.0 0.00 0.00 0.00 87 1018.8
20260502113203 30 116 0.0 1.0 0.00 0.00 0.00 87 1018.8
20260502112704 30 116 0.0 2.0 0.00 0.00 0.00 87 1018.8
20260502112203 29 116 1.0 2.0 0.00 0.00 0.00 87 1018.7
20260502111703 29 116 1.0 2.0 0.00 0.00 0.00 87 1018.8
20260502111203 29 116 1.0 2.0 0.00 0.00 0.00 86 1018.8
20260502110702 29 116 0.0 1.0 0.00 0.00 0.00 86 1018.9
20260502110204 29 116 0.0 1.0 0.00 0.00 0.00 86 1018.8
20260502105703 29 116 0.0 0.0 0.00 0.00 0.00 86 1018.9
20260502104703 29 116 0.0 1.0 0.00 0.00 0.00 86 1018.9
20260502104203 30 116 0.0 2.0 0.00 0.00 0.00 86 1019.0
20260502103704 30 116 1.0 2.0 0.00 0.00 0.00 86 1019.0
20260502103203 30 116 1.0 2.0 0.00 0.00 0.00 86 1019.0
20260502102704 30 116 1.0 2.0 0.00 0.00 0.00 86 1019.0
20260502102203 30 116 0.0 1.0 0.00 0.00 0.00 85 1019.1
20260502100703 30 116 1.0 3.0 0.00 0.00 0.00 86 1019.0
20260502100203 30 116 1.0 2.0 0.00 0.00 0.00 86 1019.0
20260502091204 30 116 0.0 0.0 0.00 0.00 0.00 86 1018.9
20260502090703 30 116 0.0 0.0 0.00 0.00 0.00 86 1018.9
20260502071204 29 79 3.0 3.0 0.00 0.00 0.00 85 1019.1
20260502070703 29 79 2.0 3.0 0.00 0.00 0.00 84 1019.1
20260502065703 29 79 2.0 3.0 0.00 0.00 0.00 84 1019.1
20260502064705 29 79 2.0 3.0 0.00 0.00 0.00 84 1019.2
20260502064203 29 79 2.0 3.0 0.00 0.00 0.00 84 1019.2
20260502063703 29 79 2.0 3.0 0.00 0.00 0.00 84 1019.2
20260502063203 29 79 3.0 3.0 0.00 0.00 0.00 84 1019.2
20260502062703 29 79 2.0 3.0 0.00 0.00 0.00 83 1019.2
20260502062203 29 79 2.0 2.0 0.00 0.00 0.00 83 1019.1